Content
SEND FEEDBACK

Daily
Averages
Monthly
Summary
United States of America

CRESCENT CITY, CALIFORNIA


Home > North America > United States > California
Elevation: 56 feet     Latitude: 41 46N     Longitude: 124 14W

WEATHER
 
SELECT A DAY
Number of Records: 269,392;   Date Range: 1/1/95 - 7/27/14
 
SHARE

PRINT THIS DATA

[ ← Previous Day ]
WEATHER ALMANAC - MARCH 14, 2013
[ Next Day → ]
[ °C ]   °F
Weather ElementAverageHighLow
Temperature46 °F57 °F (3:56 pm) (11:56 am)
Dewpoint43.8 °F46.9 °F (12:56 pm) (7:00 pm)
Humidity92.4 %100 % (12:34 am)67 % (3:56 pm)
Barometer30.20 in30.28 in (12:41 pm)30.14 in (3:56 am)
Wind Speed2.2 mph10.4 mph (10:56 am)
Weather ElementAverage
Visibility4.8 mi
Wind DirectionENE (69 °)

Weather ElementTotal
Precipitation---
Heating Degree Days36.5 (Base 65)
Averaged from 48 records on March 14, 2013
WEATHER CONDITIONS BREAKOUT
WIND DIRECTION BREAKOUT
WEATHER BY HOUR - MARCH 14, 2013
[ °C ]   °F
Local TimeTemperatureDewpointHumidityBarometerVisibilityWind DirectionWind SpeedGust SpeedPrecipitationEventsConditions
12:16 AM46.4 °F44.6 °F93 %30.18 in1.0 miCalmMist
12:34 AM46.4 °F46.4 °F100 %30.17 in0.8 miCalmMist
12:42 AM46.4 °F44.6 °F93 %30.17 in1.0 miCalmMist
12:49 AM46.4 °F44.6 °F93 %30.17 in0.8 miNE (40°)3.5 mphMist
12:56 AM45.0 °F44.1 °F97 %30.17 in0.8 miCalmMist
1:03 AM44.6 °F44.6 °F100 %30.16 in1.0 miCalmMist
1:13 AM44.6 °F44.6 °F100 %30.17 in0.5 miCalmFogFog
1:56 AM45.0 °F44.1 °F97 %30.17 in0.2 miWSW (250°)3.5 mphFogFog
2:56 AM45.0 °F45.0 °F100 %30.17 in1.0 miCalmMist
3:14 AM46.4 °F44.6 °F93 %30.16 in1.8 miCalmOvercast
3:21 AM44.6 °F44.6 °F100 %30.16 in2.5 miCalmOvercast
3:28 AM44.6 °F44.6 °F100 %30.16 in3.0 miCalmOvercast
3:56 AM45.0 °F44.1 °F97 %30.14 in2.0 miCalmOvercast
4:14 AM44.6 °F44.6 °F100 %30.14 in1.2 miCalmOvercast
4:39 AM44.6 °F44.6 °F100 %30.14 in0.8 miCalmMist
4:56 AM45.0 °F44.1 °F97 %30.15 in0.8 miSouth (180°)3.5 mphMist
5:23 AM44.6 °F44.6 °F100 %30.16 in1.5 miSSW (210°)4.6 mphOvercast
5:34 AM44.6 °F44.6 °F100 %30.15 in0.8 miCalmMist
5:49 AM44.6 °F44.6 °F100 %30.16 in1.2 miCalmOvercast
5:53 AM44.6 °F44.6 °F100 %30.16 in2.0 miCalmOvercast
5:56 AM45.0 °F44.1 °F97 %30.17 in2.5 miCalmOvercast
6:07 AM44.6 °F44.6 °F100 %30.16 in1.2 miCalmOvercast
6:21 AM44.6 °F44.6 °F100 %30.17 in1.8 miCalmOvercast
6:33 AM44.6 °F44.6 °F100 %30.17 in2.0 miSW (230°)3.5 mphOvercast
6:56 AM44.1 °F44.1 °F100 %30.17 in3.0 miWSW (240°)3.5 mphOvercast
7:53 AM44.6 °F44.6 °F100 %30.20 in8.0 miCalmOvercast
7:56 AM45.0 °F44.1 °F97 %30.21 in7.0 miCalmOvercast
8:03 AM44.6 °F44.6 °F100 %30.21 in6.0 miCalmOvercast
8:36 AM44.6 °F44.6 °F100 %30.22 in10.0 miCalmOvercast
8:56 AM45.0 °F44.1 °F97 %30.23 in10.0 miSE (130°)4.6 mphOvercast
9:29 AM46.4 °F44.6 °F93 %30.23 in3.0 miSouth (170°)4.6 mphOvercast
9:56 AM46.0 °F44.1 °F93 %30.22 in5.0 miSSE (160°)6.9 mphOvercast
10:56 AM48.0 °F46.0 °F93 %30.23 in10.0 miSW (230°)10.4 mphMostly Cloudy
11:27 AM48.2 °F46.4 °F93 %30.26 in10.0 miSW (220°)8.1 mphOvercast
11:56 AM0.0 °F0.0 °F30.26 inSE (130°)4.6 mphOvercast
12:41 PM53.6 °F46.4 °F77 %30.28 inNorthOvercast
12:56 PM54.0 °F46.9 °F77 %30.27 in10.0 miNorthMostly Cloudy
1:56 PM54.0 °F45.0 °F72 %30.26 in10.0 miSouth (180°)6.9 mphPartly Cloudy
2:56 PM55.0 °F45.0 °F69 %30.25 in10.0 miSouth (190°)9.2 mphClear
3:56 PM57.0 °F46.0 °F67 %30.23 in10.0 miSouth (190°)8.1 mphClear
4:56 PM54.0 °F46.0 °F75 %30.26 in10.0 miSW (220°)6.9 mphClear
5:56 PM55.0 °F45.0 °F69 %30.25 in10.0 miSE (140°)4.6 mphClear
6:56 PM50.0 °F44.1 °F80 %30.25 in10.0 miSSW (200°)3.5 mphClear
7:56 PM48.9 °F44.1 °F83 %30.26 in9.0 miCalmPartly Cloudy
8:56 PM48.0 °F44.1 °F86 %30.26 in10.0 miCalmClear
9:56 PM48.0 °F45.0 °F89 %30.25 in10.0 miCalmOvercast
10:56 PM48.0 °F44.1 °F86 %30.27 in10.0 miCalmScattered Clouds
11:56 PM46.0 °F43.0 °F89 %30.26 in6.0 miCalmClear
Hourly data recorded from KCEC, located miles away from Crescent City, California







STORIES FROM OUR PARTNERS